Back to catalog

YAOGAN-35 C

AliveMilitaryVLEO
NORAD 49393·PAYLOAD·🇨🇳 China

Launched Nov 6, 2021 from Xichang Satellite Launch Center

Loading…

Next Passes (next 24 hours)

TLE

FreshSource: Space-Track

Epoch: Sep 14, 2026, 15:43 UTC

1 49393U 21101D   26257.65492104  .00009596  00000-0  38412-3 0  9996
2 49393  35.0058  61.7391 0004235 122.4025 237.7100 15.24301795270666

Track YAOGAN-35 C in real time with AllMySat

Download on the App Store